Terminal Aerodrome Forecast
Issued by NWS

Home | Current Version | Previous Version | Graphics & Text | Print | Product List | Glossary On
Versions: 1 2 3 4 5 6 7 8 9 10 11 12 13 14 15 16 17 18 19
645
FTUS43 KTOP 041134
TAFFOE
TAF
KFOE 041134Z 0412/0512 VRB03KT 5SM -RA BR BKN015
     FM041300 26008KT P6SM BKN015
     FM042000 20006KT P6SM SKC=

USA.gov is the U.S. government's official web portal to all federal, state and local government web resources and services.